{"data":{"norad_id":65913,"intl_designator":"2025-225D","name":"STARLINK-35472","alt_names":[],"object_type":"PAYLOAD","status":"ACTIVE","operator":null,"country":"US","launch_date":"2025-10-08","launch_site_code":"AFWTR","launch_vehicle":null,"mission":null,"orbit_class":"UNKNOWN","rcs_meters":null,"size_class":null,"mass_kg":null,"dimensions":null,"purposes":["comms"],"wikipedia_slug":null,"has_3d_model":false,"image_url":null,"decayed_at":null,"tle_current":{"epoch":"2026-05-25T02:07:47.555904Z","epoch_age_seconds":64602,"freshness":"FRESH","line1":"1 65913U 25225D   26145.08874486  .00014726  00000+0  50789-3 0  9994","line2":"2 65913  53.1574 170.9201 0001008 107.0239 253.0872 15.30226959 36101","mean_motion":15.30226959,"eccentricity":0.0001008,"inclination_deg":53.1574,"raan_deg":170.9201,"arg_perigee_deg":107.0239,"mean_anomaly_deg":253.0872,"bstar":0.00050789,"rev_number":3610,"period_min":94.103687791583,"perigee_km":474.44376611164,"apogee_km":475.82538566134,"semimajor_km":6853.2715758865,"source":"CELESTRAK","updated_at":"2026-05-25T13:38:20.986266Z"}}}